Location: Pradons
(44.4746°N, 4.3578°E)
Time: 19:39:50
(UTC+00:00)

Daily predictions for brighter satellites

Satellite Brightness Start Highest point End
(mag) Time Altitude Azimuth Time Altitude Azimuth Time Altitude Azimuth
BREEZE-M DEB (TANK) 4.4 19:16:40 10° WNW 19:21:27 75° NNE 19:41:04 10° ESE
NOSS 3-3 (A) 4.2 19:29:06 10° SW 19:34:49 78° NW 19:41:25 10° NE
NOSS 3-3 (C) 4.2 19:29:12 10° SW 19:34:56 79° NW 19:41:31 10° NE
Cosmos 1812 3.8 19:34:26 10° SSE 19:37:42 27° E 19:40:59 10° NNE
GPS 2-04 Rocket1 4.3 19:35:09 10° WSW 19:38:27 23° S 19:41:43 10° SE
ATLAS 2AS CENTAUR R/B 3.8 19:32:56 10° NNW 19:39:43 35° NE 19:46:01 10° E
Cosmos 1833 Rocket 2.9 19:34:56 10° NNW 19:40:33 63° ENE 19:46:08 10° SE
USA 307 3.0 19:38:28 10° NW 19:42:45 77° NE 19:47:02 10° ESE
Cosmos 1745 Rocket 4.5 19:38:26 10° NNW 19:44:32 65° W 19:50:34 10° S
Cosmos 1709 Rocket 4.0 19:40:10 10° N 19:46:18 77° E 19:52:25 10° SSE
CZ-4C R/B 3.1 19:40:52 10° NW 19:48:13 87° SW 19:56:42 10° SSE
IRS-1A Rocket 4.4 19:45:06 10° SSE 19:50:55 87° ENE 19:56:52 10° NNW
Cosmos 1782 2.9 19:51:18 10° S 19:55:17 80° W 19:59:17 10° N
USA 308 2.9 19:52:19 10° NW 19:56:38 87° SSW 20:00:33 12° SE
X-37B 3.3 19:58:56 10° SW 19:59:43 11° SW 20:00:30 10° SSW
Cosmos 1500 3.1 19:58:37 10° N 20:02:22 73° E 20:06:05 10° SSE
Cosmos 1437 2.9 20:00:40 10° SSW 20:03:28 62° WNW 20:06:17 10° N
SJ-6B 4.3 20:03:48 10° SSW 20:07:26 36° W 20:11:11 10° NNW
Meteor 1-5 Rocket 4.2 20:02:27 10° N 20:07:45 61° ENE 20:12:48 11° SSE
Terra 3.7 20:12:22 10° E 20:15:15 16° ENE 20:18:07 10° NNE
MetOp-B 4.3 20:11:26 12° SSE 20:16:15 59° ENE 20:21:31 10° N
Meteor 1-11 Rocket 4.4 20:13:29 10° N 20:19:09 44° ENE 20:23:31 16° SE
Cosmos 1515 Rocket 3.5 20:14:58 10° S 20:19:22 78° E 20:23:45 10° N
USA 267 4.5 20:15:50 10° S 20:21:35 33° SW 20:27:22 10° WNW
Cosmos 2228 Rocket 3.8 20:19:04 15° SSE 20:22:10 35° E 20:26:16 10° NNE
Cosmos 2315 Rocket 4.5 20:16:39 10° SSW 20:22:58 66° W 20:29:21 10° N
Cosmos 1633 Rocket 4.2 20:19:13 10° NNW 20:23:23 42° W 20:27:32 10° SSW
Tianhe-1 1.7 20:20:47 10° SW 20:23:41 34° SSE 20:25:06 22° ESE
Resurs 01 Rocket 1.7 20:21:33 11° S 20:25:52 79° WSW 20:30:19 10° NNW
Cosmos 1869 Rocket 4.4 20:22:46 10° N 20:26:42 33° ENE 20:29:01 20° SE
BREEZE M DEB (TANK) 2.6 20:25:14 10° WNW 20:29:40 47° N 20:31:12 17° E
SWARM C 4.4 20:27:29 10° N 20:30:49 88° ENE 20:33:17 17° S
SWARM A 4.2 20:27:36 10° N 20:30:56 88° W 20:33:28 16° S
Cosmos 2082 Rocket 2.2 20:25:50 10° NNW 20:31:29 81° ENE 20:35:39 19° SSE
SPOT 1/Viking Rocket 3.6 20:27:48 17° SSE 20:31:49 64° ENE 20:36:57 10° N
ERS-1 Rocket 3.9 20:29:27 18° ESE 20:32:28 33° ENE 20:36:56 10° N
USA 305 3.7 20:30:05 10° WNW 20:34:07 42° SW 20:36:40 20° SSE
Cosmos 1943 Rocket 3.0 20:35:05 18° SSE 20:38:11 31° ESE 20:43:02 10° NE
Spot 2 Rocket 3.7 20:35:19 20° SE 20:38:39 55° ENE 20:43:34 10° N
Cosmos 1937 Rocket 4.3 20:36:59 21° SE 20:39:22 30° E 20:43:50 10° NE
OBJECT-B 3.9 20:39:47 10° WSW 20:40:36 11° W 20:41:26 10° WNW
Cosmos 1470 Rocket 4.5 20:36:31 10° NNW 20:40:51 49° W 20:45:09 10° SSW
Meteor 1-10 Rocket 4.2 20:36:14 10° S 20:41:49 83° E 20:47:33 10° NNE
ERBS 3.9 20:40:09 10° NNW 20:43:02 27° NNE 20:44:57 16° E
CARTOSAT-1 3.9 20:42:26 25° SE 20:44:42 50° ENE 20:48:53 10° N
Landsat 7 4.1 20:40:49 14° S 20:44:50 67° WSW 20:49:36 10° NNW
SPOT 5 3.7 20:42:26 22° SE 20:45:24 43° ENE 20:50:26 10° N
DNEPR-1 R/B 4.4 20:40:28 10° SSW 20:46:24 48° ESE 20:51:19 10° NE
Cosmos 1536 3.3 20:43:13 10° N 20:47:07 45° ENE 20:48:43 29° SE
SPOT 3 Rocket 4.0 20:43:35 12° S 20:48:14 58° W 20:53:20 10° NNW
CZ-2C R/B 3.7 20:43:41 10° NNE 20:48:14 85° WNW 20:52:50 10° SSW
Cosmos 1271 Rocket 3.0 20:44:48 10° SSW 20:48:47 73° W 20:52:48 10° N
COSMOS 2406 4.4 20:48:04 10° NW 20:53:12 36° WSW 20:58:07 11° S
USA 306 4.2 20:49:57 10° WNW 20:53:42 30° SW 20:55:36 21° S
ISS -3.4 20:51:03 10° WSW 20:54:24 67° NNW 20:57:46 10° NE
Cosmos 1933 Rocket 4.2 20:50:22 10° NNW 20:54:36 52° W 20:57:58 15° SSW
Cosmos 1680 Rocket 3.6 20:49:17 10° NNW 20:54:36 68° ENE 20:57:31 27° SE
Cosmos 2278 Rocket 3.6 20:49:45 10° SW 20:55:04 41° WNW 21:00:25 10° NNE
SJ 16-02 2.8 20:53:23 10° SW 20:57:33 39° WNW 21:01:44 10° N
Cosmos 2084 Rocket 3.8 20:54:38 10° NNW 20:58:51 55° NE 21:00:52 29° ESE
Cosmos 2369 Rocket 3.3 20:58:46 23° ESE 20:59:37 24° ESE 21:04:03 10° NE
Cosmos 1544 3.5 20:56:58 10° N 21:00:28 44° ENE 21:01:17 37° ESE
Cosmos 1666 4.0 21:03:38 10° NNW 21:07:03 35° W 21:09:29 16° SSW
JB-3 4.1 21:06:25 10° NNE 21:10:17 88° ESE 21:12:01 31° SSW
Cosmos 1733 Rocket 4.0 21:07:33 10° N 21:11:28 32° ENE 21:12:25 29° E
ARIANE 5 R/B 2.6 21:10:14 31° S 21:12:14 77° WSW 21:16:36 10° NNW
RESURS DK-1 4.5 21:13:13 10° N 21:16:01 17° NE 21:17:43 14° ENE
NOSS 3-4 (A) 4.4 21:10:55 10° NW 21:17:45 51° WSW 21:22:34 23° S
Iridium 4 Rocket 4.3 21:12:28 12° SSW 21:17:52 59° W 21:23:42 10° N
NOSS 3-4 (C) 4.4 21:11:01 10° NW 21:17:52 51° WSW 21:22:39 23° S
USA 245 3.8 21:18:31 26° W 21:18:31 26° W 21:20:31 10° NW
BREEZE-M DEB (TANK) 1.8 21:17:01 10° WNW 21:18:58 53° NNE 21:18:58 53° NNE
Cosmos 372 Rocket 4.4 21:20:07 35° SE 21:21:03 39° ESE 21:25:46 10° NE
Cosmos 990 Rocket 4.3 21:18:19 10° SSW 21:23:32 66° WNW 21:28:47 10° NNE
OAO 3 Rocket 4.5 21:22:08 10° WSW 21:24:50 23° SSW 21:24:50 23° SSW
Cosmos 1898 Rocket 3.6 21:21:37 12° SSW 21:26:30 77° WNW 21:31:52 10° NNE
Meteor 1-27 Rocket 4.2 21:24:44 14° SSW 21:29:52 65° WNW 21:35:47 10° N
ATLAS 2AS CENTAUR R/B 2.9 21:23:59 10° NW 21:31:12 67° WSW 21:34:30 32° SSE
SL-24 R/B - RUBIN 2 4.1 21:27:14 10° NW 21:32:31 61° WSW 21:34:02 41° S
Cosmos 44 3.7 21:28:50 10° NW 21:34:09 59° WSW 21:35:56 38° S
Cosmos 1818 3.5 21:31:22 10° NW 21:36:54 86° SW 21:38:46 43° SSE
Cosmos 2154 Rocket 4.4 21:31:04 10° NNW 21:37:16 60° W 21:40:59 25° SSW
Cosmos 1743 2.6 21:34:41 10° N 21:38:35 84° W 21:39:06 65° S
Cosmos 962 Rocket 4.4 21:36:00 10° N 21:42:10 88° E 21:44:46 37° S
Meteor 1-19 Rocket 4.2 21:43:17 44° SSE 21:44:40 59° E 21:49:59 10° NNE
BREEZE-M R/B 3.3 21:45:44 10° NW 21:48:00 35° NNE 21:48:00 35° NNE
H-2A R/B 3.5 21:47:18 10° N 21:51:29 77° WNW 21:52:23 53° SSW
Meteor 2-4 Rocket 4.3 21:50:59 37° ESE 21:51:53 40° E 21:57:03 10° NNE
Terra 2.0 21:51:09 46° SSW 21:52:26 67° WSW 21:57:12 10° NNW
Cosmos 1461 3.6 21:50:19 13° SW 21:54:31 62° NW 21:59:08 10° NNE
Okean 1-7 4.4 21:56:31 25° ENE 21:56:31 25° ENE 21:59:30 10° NNE
Gbstr 26 Del rocket 4.0 21:48:26 10° WNW 21:55:58 78° SW 21:58:20 42° SE
Cosmos 1862 Rocket 3.3 21:57:49 71° S 21:58:15 85° E 22:02:36 10° N
Cosmos 1340 Rocket 3.9 21:55:47 10° NNW 21:59:32 36° W 22:00:21 33° WSW
Tianhe-1 3.9 21:56:57 10° WSW 21:57:06 11° WSW 21:57:06 11° WSW
Okean 1 3.3 22:00:55 67° WSW 22:01:15 73° W 22:05:14 10° N
Cosmos 1125 Rocket 4.4 22:04:18 31° E 22:04:18 31° E 22:08:31 10° NE
ATLAS CENTAUR R/B 2.6 22:10:15 27° NE 22:10:15 27° NE 22:12:10 10° NE
Cosmos 1607 3.9 22:06:38 40° S 22:09:04 70° ESE 22:15:32 10° NE
ERS-1 Rocket 4.2 22:09:26 25° SW 22:11:13 32° W 22:15:45 10° NNW
Cosmos 2082 Rocket 4.4 22:11:43 10° WNW 22:14:48 15° W 22:17:31 11° SW
Cosmos 2366 rocket 3.9 22:10:56 10° N 22:17:10 89° W 22:18:59 50° S
Cosmos 2181 Rocket 4.0 22:16:13 41° SSW 22:18:29 78° W 22:24:39 10° N
ERBS 4.2 22:16:06 10° WNW 22:17:42 23° W 22:17:42 23° W
Cosmos 1943 Rocket 3.2 22:16:30 10° SW 22:21:46 43° WNW 22:27:05 10° NNE
Milstar 3 4.4 22:19:35 10° WSW 22:29:20 28° SSW 22:29:20 28° SSW
Cosmos 1867 3.6 22:28:40 41° SW 22:30:37 78° NW 22:36:09 10° NNE
Spot 4 3.9 22:30:35 62° ESE 22:31:00 65° ENE 22:35:50 10° N
Cosmos 1656 Rocket 3.5 22:30:07 63° S 22:31:02 83° ESE 22:36:36 10° NNE
ISS -1.4 22:28:47 10° WNW 22:31:39 25° N 22:34:31 10° NE
Cosmos 1238 Rocket 4.3 22:31:28 10° NNW 22:36:45 40° W 22:37:52 35° WSW
Cosmos 1975 3.6 22:37:41 10° NNW 22:41:09 45° WNW 22:41:09 45° WNW
Cosmos 1048 Rocket 3.8 22:36:59 10° NNW 22:42:19 87° WSW 22:42:47 75° S
Cosmos 2369 Rocket 2.8 22:40:30 28° WSW 22:43:14 53° WNW 22:48:47 10° NNE
Cosmos 724 4.4 22:44:33 58° SE 22:45:05 60° ESE 22:51:14 10° NE
Cosmos 2218 Rocket 4.5 22:40:42 10° NNW 22:46:48 52° W 22:48:39 40° SW
ALOS 2 3.1 22:47:43 51° ENE 22:47:43 51° ENE 22:51:51 10° N
Cosmos 2344 4.5 22:39:06 10° NW 22:48:21 73° NE 22:56:38 25° SE
Okean 3 4.2 22:51:44 46° NE 22:51:44 46° NE 22:55:04 10° NNE
BREEZE-M DEB (TANK) 4.0 22:36:11 10° WNW 22:51:22 88° SSW 22:52:48 52° ESE
Lacrosse 5 2.5 22:54:17 42° E 22:54:17 42° E 22:57:56 10° NE
RESURS DK-1 3.1 22:50:18 10° NW 22:53:36 47° WNW 22:53:36 47° WNW
SL-27 R/B 4.0 22:51:03 10° NNW 22:53:01 33° NNW 22:53:01 33° NNW
Cosmos 1356 Rocket 3.8 22:53:54 10° N 22:57:43 61° NE 22:57:43 61° NE
Nadezhda 3 Rocket 3.9 22:59:44 62° S 23:00:52 83° E 23:07:06 10° N
Cosmos 1300 Rocket 4.4 22:59:05 10° N 23:02:55 42° ENE 23:02:55 42° ENE
Meteor 1-12 Rocket 4.1 23:05:47 10° NNW 23:11:39 85° WSW 23:12:18 71° S
USA 215 4.5 23:05:45 10° E 23:11:43 39° NNE 23:17:40 10° NW
Thor Agena Rocket 4.0 23:10:36 10° NNE 23:15:40 49° E 23:15:40 49° E
Sich 1 Rocket 3.8 23:12:30 10° N 23:16:39 65° NE 23:16:39 65° NE
COSMOS 2455 4.0 23:13:04 10° NNW 23:18:39 38° NE 23:21:45 23° E
Cosmos 1805 4.2 23:15:32 10° N 23:18:27 45° NNE 23:18:27 45° NNE
Cosmos 494 Rocket 4.2 23:15:36 10° NNW 23:20:30 54° W 23:20:30 54° W
Cosmos 1378 4.4 23:22:00 40° NNW 23:22:00 40° NNW 23:24:38 10° N
Cosmos 1066 Rocket 4.1 23:22:33 74° S 23:23:07 90° E 23:28:46 10° N
COBE Rocket 3.9 23:26:12 79° WSW 23:26:17 80° WSW 23:31:30 10° NNW
Okean 2 Rocket 3.5 23:24:15 10° N 23:28:09 58° NE 23:28:09 58° NE
Meteor 1-15 Rocket 4.1 23:23:36 10° N 23:29:22 83° E 23:30:02 71° SSE
Cosmos 2151 Rocket 4.2 23:26:14 10° N 23:30:21 50° ENE 23:30:21 50° ENE
Okean 1-7 4.5 23:33:21 28° WNW 23:33:25 28° WNW 23:37:08 10° NNW
Cosmos 2227 Rocket 4.1 23:29:17 10° N 23:33:52 25° NE 23:37:43 13° E
Cosmos 44 Rocket 3.7 23:30:18 10° NW 23:34:54 56° W 23:34:54 56° W
Cosmos 2297 Rocket 3.6 23:31:12 10° N 23:36:15 32° NE 23:39:09 20° E
Cosmos 1766 4.2 23:34:00 10° N 23:36:58 47° NNE 23:36:58 47° NNE
NOSS 2-1 (C) 4.2 23:39:36 10° NW 23:44:42 72° SW 23:45:14 68° SSW
ATLAS CENTAUR R/B 3.6 23:46:20 15° WNW 23:47:41 18° NW 23:50:21 10° N
COSMOS 2487 4.4 23:44:33 10° NNW 23:46:11 26° NNW 23:46:11 26° NNW
NOSS 2-1 (D) 4.3 23:46:30 10° NW 23:51:36 65° SW 23:51:55 64° SW
Cosmos 1934 Rocket 3.9 23:46:37 10° NNW 23:52:40 67° W 23:53:27 60° SW
Cosmos 1378 Rocket 4.2 23:53:20 47° ENE 23:53:20 47° ENE 23:56:53 10° NNE
